Location: Caltech
(34.1382°N, 118.1253°W)
Time: 15:07:02
(UTC-07:00)

ARGOS - Visible Passes

Search period start: 23 March 2017 00:00
Search period end: 02 April 2017 00:00
Orbit: 819 x 836 km, 98.6° (Epoch: 22 March)

Date Brightness Start Highest point End Pass type
(mag) Time Alt. Az. Time Alt. Az. Time Alt. Az.
23 Mar 5.0 21:29:44 18° NNE 21:29:44 18° NNE 21:31:23 10° N visible
23 Mar 6.1 23:11:14 11° NW 23:11:14 11° NW 23:11:25 10° NW visible
24 Mar 5.1 21:10:50 15° NNE 21:10:50 15° NNE 21:12:16 10° NNE visible
24 Mar 5.7 22:52:21 15° NNW 22:52:21 15° NNW 22:53:19 10° NNW visible
25 Mar 5.2 20:51:57 12° NE 20:51:57 12° NE 20:52:43 10° NNE visible
25 Mar 5.4 22:33:27 19° NNW 22:33:27 19° NNW 22:34:59 10° NNW visible
26 Mar 5.1 22:14:34 23° N 22:14:34 23° N 22:16:29 10° NNW visible
27 Mar 4.8 21:55:40 24° N 21:55:40 24° N 21:57:50 10° N visible
28 Mar 4.8 21:36:47 23° NNE 21:36:47 23° NNE 21:39:01 10° N visible
28 Mar 6.0 23:18:17 11° NW 23:18:17 11° NW 23:18:37 10° NW visible
29 Mar 4.9 21:17:53 19° NE 21:17:53 19° NE 21:20:01 10° NNE visible
29 Mar 5.7 22:59:24 16° NW 22:59:24 16° NW 23:00:38 10° NNW visible
30 Mar 5.0 20:59:00 15° NE 20:59:00 15° NE 21:00:41 10° NNE visible
30 Mar 5.3 22:40:31 22° NNW 22:40:31 22° NNW 22:42:23 10° NNW visible
31 Mar 5.3 20:40:07 10° NE 20:40:07 10° NE 20:40:24 10° NE visible
31 Mar 4.9 22:21:37 27° NNW 22:21:37 27° NNW 22:23:57 10° NNW visible
01 Apr 4.6 22:02:44 30° N 22:02:44 30° N 22:05:22 10° N visible
